Regional Weather Roundup
Issued by NWS

Home | Current Version | Previous Version | Text Only | Print | Product List | Glossary Off
Versions: 1 2 3 4 5 6 7 8 9 10 11 12 13 14 15 16 17 18 19 20 21 22 23 24 25 26 27 28 29 30 31 32 33 34 35 36 37 38 39 40 41 42 43 44 45 46 47 48 49 50

000
ASUS43 KLOT 191903
RWRIL

ILLINOIS REGIONAL WEATHER ROUNDUP
NATIONAL WEATHER SERVICE CHICAGO/ROMEOVILLE IL
100 PM CST SUN NOV 19 2017

NOTE: "FAIR" INDICATES FEW OR NO CLOUDS BELOW 12,000 FEET WITH NO
SIGNIFICANT WEATHER AND/OR OBSTRUCTIONS TO VISIBILITY.

* THESE STATIONS ARE NOT UNDER NWS QUALITY CONTROL. THEY ALSO MAY NOT
  REPORT WEATHER SUCH AS PRECIPITATION OR FOG.

ILZ001-002-007-009-015-016-024-192000-
NORTHWEST ILLINOIS

CITY           SKY/WX    TMP DP  RH WIND       PRES   REMARKS
MOLINE         MOSUNNY   36  17  46 W13       30.14S WCI  27
STERLING*      MOSUNNY   32  17  54 W14       30.10F WCI  22
SAVANNA*       CLOUDY    33  16  49 W9        30.11S WCI  26
$$

ILZ003-004-008-010-011-017-018-192000-
NORTH CENTRAL ILLINOIS

CITY           SKY/WX    TMP DP  RH WIND       PRES   REMARKS
ROCKFORD       PTSUNNY   33  16  49 NW14      30.08F WCI  23
FREEPORT*      MOSUNNY   31  16  53 W15       30.09S WCI  20
ROCHELLE*      SUNNY     33  18  55 W16       30.07F WCI  22
DE KALB*       SUNNY     32  18  57 W18       30.06S WCI  20
PERU*          MOSUNNY   31  18  58 W17       30.10F WCI  20
$$

ILZ005-006-012>014-019>023-192000-
NORTHEAST ILLINOIS

CITY           SKY/WX    TMP DP  RH WIND       PRES   REMARKS
CHICAGO-OHARE  MOSUNNY   34  18  52 W14G21    30.03F WCI  25
CHICAGO-MIDWAY MOSUNNY   35  20  54 W15       30.04F WCI  25
AURORA         SUNNY     33  21  61 W16       30.06F WCI  23
LANSING*       SUNNY     33  22  63 W15       30.05F WCI  23
JOLIET*        SUNNY     35  20  55 W9G17     30.07F WCI  28
WAUKEGAN       SUNNY     33  16  49 W12G21    30.01F WCI  24
DUPAGE AIRPORT SUNNY     32  19  58 W15       30.04F WCI  22
KANKAKEE*      MOSUNNY   34  23  64 W17       30.09F WCI  23
WHEELING       SUNNY     35  18  49 NW15      30.05F WCI  25
MORRIS*        MOSUNNY   33  21  60 NW15G23   30.07F WCI  23
ROMEOVILLE*    SUNNY     33  22  64 NW17      30.06F WCI  22
NORTHERLY ISL    N/A     34  18  52 W12         N/A  WCI  25
$$

LMZ740>746-192000-
SOUTHERN LAKE MICHIGAN

STATION/POSITION SKY/WX   TEMP    WIND        PRES    VSBY  WAVE
                          AIR SEA DIR/SP/G                  HT/PER
                          (F)     (DEG/KT/KT) (MB)    (MI)  (FT/S)
SOUTHERN BUOY              30 49  330/ 17/ 23 1016.5          6/ 7
HARRISON CRIB              33     290/ 17/ 19   N/A
BURNHAM HARBOR             34     250/ 11/ 17   N/A
CALUMET HARBOR             34     240/  7/ 14 1016.7S
BURNS HARBOR               34     290/ 14/ 21 1017.6S
MICHIGAN CITY              32     250/ 21/ 25   N/A
$$

ILZ025>027-034>036-040-047-049-050-058-095>099-192000-
WEST-CENTRAL ILLINOIS

CITY           SKY/WX    TMP DP  RH WIND       PRES   REMARKS
QUINCY         SUNNY     37  18  46 NW10      30.19F WCI  30
GALESBURG*     PTSUNNY   34  21  59 W12       30.16S WCI  26
MACOMB*        SUNNY     35  20  54 W10       30.19F WCI  27
JACKSONVILLE*  MOSUNNY   36  19  48 W9G18     30.18F WCI  29
PITTSFIELD*    SUNNY     38  18  44 W10       30.20F WCI  32
$$

ILZ028>032-037-038-041>044-048-051>054-059>061-192000-
CENTRAL ILLINOIS

CITY           SKY/WX    TMP DP  RH WIND       PRES   REMARKS
PONTIAC        MOSUNNY   33  22  65 W15       30.11F WCI  23
BLOOMINGTON    MOSUNNY   33  19  56 W15       30.12F WCI  23
DECATUR        MOSUNNY   35  19  52 W10G24    30.16F WCI  27
PEORIA         MOSUNNY   34  17  50 W12       30.14F WCI  25
LACON*         CLOUDY    32  18  54 NW14G20   30.12F WCI  22
LINCOLN*       CLOUDY    35  20  55 NW7G16    30.16F WCI  29
SPRINGFIELD    PTSUNNY   37  20  50 W13       30.18F WCI  29
TAYLORVILLE    SUNNY     35  21  57 W14       30.18F WCI  26
$$

ILZ033-039-045-046-055>057-062-063-192000-
EAST-CENTRAL ILLINOIS

CITY           SKY/WX    TMP DP  RH WIND       PRES   REMARKS
CHAMPAIGN      SUNNY     35  23  61 W18       30.13S WCI  24
DANVILLE*      PTSUNNY   32  23  71 W16G22    30.09S WCI  21
RANTOUL*       SUNNY     35  25  67 W16G23    30.11F WCI  25
MATTOON        SUNNY     35  24  64 W15       30.14F WCI  25
PARIS*         PTSUNNY   34  27  73 W16       30.14F WCI  24
$$

ILZ079-100>102-192000-
SOUTHWEST ILLINOIS

CITY           SKY/WX    TMP DP  RH WIND       PRES   REMARKS
ALTON          MOSUNNY   39  18  41 NW14G21   30.22F WCI  31
BELLEVILLE     SUNNY     41  17  38 NW14G21   30.21F
CAHOKIA*       SUNNY     41  19  41 W14       30.23F
SPARTA*        SUNNY     39  22  49 NW13      30.23S WCI  32
$$

ILZ064>066-069>071-074>076-080>082-084>086-088>090-092>094-192000-
SOUTH-CENTRAL ILLINOIS

CITY           SKY/WX    TMP DP  RH WIND       PRES   REMARKS
CARBONDALE     SUNNY     41  22  46 NW9G23    30.22R
CAIRO*         SUNNY     44  25  47 W9        30.20S
EFFINGHAM*     SUNNY     37  24  58 W15G23    30.19S WCI  28
MARION         SUNNY     43  23  45 N12       30.21S
MT. VERNON     SUNNY     39  20  46 VRB7      30.21R WCI  34
CENTRALIA*     SUNNY     39  22  50 NW16      30.20S WCI  30
SALEM*         SUNNY     40  21  46 W15       30.19F
METROPOLIS*    SUNNY     44  24  46 W10       30.19F
$$

ILZ067-068-072-073-078-083-087-091-192000-
SOUTHEAST ILLINOIS

CITY           SKY/WX    TMP DP  RH WIND       PRES   REMARKS
LAWRENCEVILLE  MOSUNNY   39  23  52 NW18      30.17R WCI  30
FLORA*         SUNNY     39  22  51 NW14G23   30.14S WCI  31
FAIRFIELD*     SUNNY     39  19  44 W7        30.19R WCI  34
HARRISBURG*    SUNNY     42  24  48 NW14G21   30.20R
ROBINSON*      MOSUNNY   36  24  62 W17G23    30.17R WCI  26
$$

ABBREVIATIONS USED IN REMARKS
   TC - TEMPERATURE IN CELSIUS
  WCI - WIND CHILL INDEX
   HX - HEAT INDEX
  VSB - VISIBILITY
$$




USA.gov is the U.S. government's official web portal to all federal, state and local government web resources and services.